When you browse on this site, cookies collect data to enhance your experience and personalize the content and advertising you see.
Visit our Privacy Policy to learn more. By continuing to use the site, you agree to this use of cookies and data.
  • In Schweiz
  • Länderverzeichnis
  • Für 7 Tage
  • Wassertemperatur
  • Satellitenkarten
  • Wetterkarte
  • Widgets
  • user-avatar
    Anmelden

    Stündliche Wetter Goiania

    Heute, 17 November, Samstag

    Zeit Temperatur Niederschläge Wind Luftdruck Luftfeuchtigkeit
    00:00 +24°C° 1.4 mm 1 m/S 697 mmHg 93%
    01:00 +24°C° 0.8 mm 1 m/S 697 mmHg 93%
    02:00 +24°C° 0.8 mm 1 m/S 697 mmHg 93%
    03:00 +23°C° 0.8 mm 1 m/S 697 mmHg 93%
    04:00 +23°C° 0.6 mm 1 m/S 697 mmHg 93%
    05:00 +23°C° 0.6 mm 1 m/S 697 mmHg 94%
    06:00 +23°C° 0.6 mm 1 m/S 698 mmHg 94%
    07:00 +24°C° 0.7 mm 2 m/S 698 mmHg 92%
    08:00 +24°C° 0.7 mm 2 m/S 698 mmHg 90%
    09:00 +25°C° 0.7 mm 3 m/S 699 mmHg 88%
    10:00 +26°C° 0.6 mm 3 m/S 699 mmHg 87%
    11:00 +26°C° 0.6 mm 4 m/S 699 mmHg 85%
    12:00 +26°C° 0.6 mm 4 m/S 699 mmHg 84%
    13:00 +26°C° 0.5 mm 4 m/S 698 mmHg 85%
    14:00 +26°C° 0.5 mm 3 m/S 698 mmHg 85%
    15:00 +26°C° 0.5 mm 3 m/S 697 mmHg 86%
    16:00 +25°C° 0.6 mm 3 m/S 697 mmHg 89%
    17:00 +25°C° 0.6 mm 2 m/S 697 mmHg 91%
    18:00 +24°C° 0.6 mm 2 m/S 697 mmHg 93%
    19:00 +24°C° 0.3 mm 2 m/S 697 mmHg 94%
    20:00 +24°C° 0.3 mm 2 m/S 698 mmHg 94%
    21:00 +23°C° 0.3 mm 2 m/S 698 mmHg 95%
    22:00 +23°C° 0.5 mm 2 m/S 698 mmHg 94%
    23:00 +22°C° 0.5 mm 3 m/S 699 mmHg 94%

    Morgen, 18 November, Sonntag

    Zeit Temperatur Niederschläge Wind Luftdruck Luftfeuchtigkeit
    00:00 +22°C° 0.5 mm 3 m/S 699 mmHg 94%
    01:00 +22°C° 1 mm 3 m/S 698 mmHg 94%
    02:00 +22°C° 1 mm 3 m/S 698 mmHg 94%
    03:00 +21°C° 1 mm 3 m/S 698 mmHg 94%
    04:00 +21°C° 0.5 mm 3 m/S 698 mmHg 94%
    05:00 +21°C° 0.5 mm 3 m/S 698 mmHg 94%
    06:00 +21°C° 0.5 mm 3 m/S 698 mmHg 94%
    07:00 +22°C° 0.2 mm 4 m/S 698 mmHg 91%
    08:00 +23°C° 0.2 mm 4 m/S 699 mmHg 89%
    09:00 +25°C° 0.2 mm 4 m/S 700 mmHg 86%
    10:00 +26°C° 0.8 mm 4 m/S 700 mmHg 83%
    11:00 +27°C° 0.8 mm 4 m/S 700 mmHg 81%
    12:00 +28°C° 0.8 mm 4 m/S 699 mmHg 78%
    13:00 +28°C° 1.5 mm 3 m/S 699 mmHg 80%
    14:00 +27°C° 1.5 mm 3 m/S 698 mmHg 82%
    15:00 +27°C° 1.5 mm 2 m/S 697 mmHg 84%
    16:00 +26°C° 2 mm 2 m/S 697 mmHg 87%
    17:00 +25°C° 2 mm 2 m/S 697 mmHg 89%
    18:00 +24°C° 2 mm 2 m/S 697 mmHg 92%
    19:00 +24°C° 1.5 mm 2 m/S 698 mmHg 93%
    20:00 +24°C° 1.5 mm 2 m/S 698 mmHg 93%
    21:00 +24°C° 1.5 mm 2 m/S 699 mmHg 93%
    22:00 +23°C° 1.2 mm 2 m/S 699 mmHg 94%
    23:00 +23°C° 1.2 mm 1 m/S 699 mmHg 94%

    übermorgen, 19 November, Montag

    Zeit Temperatur Niederschläge Wind Luftdruck Luftfeuchtigkeit
    00:00 +23°C° 1.2 mm 1 m/S 699 mmHg 94%
    01:00 +23°C° 0.7 mm 1 m/S 698 mmHg 95%
    02:00 +23°C° 0.7 mm 2 m/S 697 mmHg 95%
    03:00 +23°C° 0.7 mm 2 m/S 697 mmHg 95%
    04:00 +21°C° 1.2 mm 2 m/S 697 mmHg 95%
    05:00 +21°C° 1.2 mm 2 m/S 697 mmHg 95%
    06:00 +21°C° 1.2 mm 2 m/S 697 mmHg 95%
    07:00 +22°C° 0.8 mm 3 m/S 698 mmHg 94%
    08:00 +24°C° 0.8 mm 3 m/S 698 mmHg 93%
    09:00 +24°C° 0.8 mm 3 m/S 698 mmHg 91%
    10:00 +25°C° 0.7 mm 4 m/S 698 mmHg 87%
    11:00 +27°C° 0.7 mm 4 m/S 698 mmHg 84%
    12:00 +28°C° 0.7 mm 4 m/S 698 mmHg 80%
    13:00 +27°C° 1 mm 4 m/S 697 mmHg 83%
    14:00 +26°C° 1 mm 3 m/S 697 mmHg 85%
    15:00 +25°C° 1 mm 3 m/S 696 mmHg 88%
    16:00 +25°C° 0.4 mm 3 m/S 696 mmHg 89%
    17:00 +25°C° 0.4 mm 2 m/S 696 mmHg 90%
    18:00 +24°C° 0.4 mm 2 m/S 696 mmHg 91%
    19:00 +24°C° 0.4 mm 2 m/S 696 mmHg 92%
    20:00 +24°C° 0.4 mm 2 m/S 697 mmHg 92%
    21:00 +23°C° 0.4 mm 2 m/S 697 mmHg 92%
    22:00 +23°C° 0.4 mm 2 m/S 697 mmHg 93%
    23:00 +23°C° 0.4 mm 2 m/S 697 mmHg 93%

    20 November, Dienstag

    Zeit Temperatur Niederschläge Wind Luftdruck Luftfeuchtigkeit
    00:00 +23°C° 0.4 mm 1 m/S 698 mmHg 93%
    01:00 +23°C° 0.4 mm 1 m/S 697 mmHg 94%
    02:00 +23°C° 0.4 mm 1 m/S 697 mmHg 94%
    03:00 +22°C° 0.4 mm 1 m/S 696 mmHg 94%
    04:00 +22°C° 0.8 mm 1 m/S 696 mmHg 95%
    05:00 +22°C° 0.8 mm 1 m/S 697 mmHg 95%
    06:00 +22°C° 0.8 mm 1 m/S 697 mmHg 96%
    07:00 +23°C° 1.6 mm 1 m/S 698 mmHg 95%
    08:00 +23°C° 1.6 mm 1 m/S 698 mmHg 95%
    09:00 +23°C° 1.6 mm 1 m/S 699 mmHg 95%
    10:00 +23°C° 1.2 mm 1 m/S 698 mmHg 93%
    11:00 +24°C° 1.2 mm 2 m/S 698 mmHg 92%
    12:00 +24°C° 1.2 mm 2 m/S 698 mmHg 91%
    13:00 +24°C° 1 mm 2 m/S 697 mmHg 92%
    14:00 +24°C° 1 mm 2 m/S 697 mmHg 92%
    15:00 +24°C° 1 mm 2 m/S 696 mmHg 92%
    16:00 +24°C° 0.7 mm 2 m/S 696 mmHg 93%
    17:00 +24°C° 0.7 mm 2 m/S 696 mmHg 94%
    18:00 +23°C° 0.7 mm 2 m/S 697 mmHg 95%
    19:00 +23°C° 0.6 mm 2 m/S 697 mmHg 95%
    20:00 +23°C° 0.6 mm 2 m/S 698 mmHg 95%
    21:00 +23°C° 0.6 mm 2 m/S 698 mmHg 96%
    22:00 +23°C° 0.6 mm 2 m/S 698 mmHg 96%
    23:00 +21°C° 0.6 mm 2 m/S 698 mmHg 96%

    21 November, Mittwoch

    Zeit Temperatur Niederschläge Wind Luftdruck Luftfeuchtigkeit
    00:00 +21°C° 0.6 mm 2 m/S 698 mmHg 96%
    01:00 +21°C° 1.1 mm 2 m/S 698 mmHg 96%
    02:00 +22°C° 1.1 mm 1 m/S 697 mmHg 96%
    03:00 +22°C° 1.1 mm 1 m/S 697 mmHg 96%
    04:00 +22°C° 1.1 mm 1 m/S 697 mmHg 96%
    05:00 +21°C° 1.1 mm 2 m/S 697 mmHg 96%
    06:00 +21°C° 1.1 mm 2 m/S 698 mmHg 96%
    07:00 +21°C° 0.9 mm 2 m/S 698 mmHg 96%
    08:00 +21°C° 0.9 mm 2 m/S 699 mmHg 95%
    09:00 +21°C° 0.9 mm 2 m/S 699 mmHg 95%
    10:00 +22°C° 0.5 mm 3 m/S 699 mmHg 94%
    11:00 +22°C° 0.5 mm 3 m/S 699 mmHg 92%
    12:00 +24°C° 0.5 mm 3 m/S 699 mmHg 91%
    13:00 +24°C° 0.5 mm 3 m/S 698 mmHg 91%
    14:00 +24°C° 0.5 mm 3 m/S 698 mmHg 90%
    15:00 +24°C° 0.5 mm 3 m/S 698 mmHg 90%
    16:00 +24°C° 0.5 mm 2 m/S 698 mmHg 91%
    17:00 +23°C° 0.5 mm 2 m/S 698 mmHg 92%
    18:00 +23°C° 0.5 mm 2 m/S 698 mmHg 94%
    19:00 +23°C° 0.2 mm 2 m/S 698 mmHg 94%
    20:00 +21°C° 0.2 mm 2 m/S 698 mmHg 94%
    21:00 +21°C° 0.2 mm 3 m/S 699 mmHg 94%
    22:00 +21°C° 0.3 mm 3 m/S 698 mmHg 94%
    23:00 +21°C° 0.3 mm 3 m/S 698 mmHg 94%

    22 November, Donnerstag

    Zeit Temperatur Niederschläge Wind Luftdruck Luftfeuchtigkeit
    00:00 +20°C° 0.3 mm 3 m/S 698 mmHg 94%
    01:00 +20°C° 0.7 mm 3 m/S 698 mmHg 94%
    02:00 +20°C° 0.7 mm 3 m/S 697 mmHg 94%
    03:00 +20°C° 0.7 mm 3 m/S 697 mmHg 95%
    04:00 +20°C° 0.7 mm 3 m/S 697 mmHg 94%
    05:00 +20°C° 0.7 mm 3 m/S 697 mmHg 94%
    06:00 +20°C° 0.7 mm 3 m/S 697 mmHg 94%
    07:00 +20°C° 0.5 mm 3 m/S 698 mmHg 93%
    08:00 +20°C° 0.5 mm 3 m/S 698 mmHg 93%
    09:00 +20°C° 0.5 mm 3 m/S 699 mmHg 93%
    10:00 +21°C° 0.2 mm 3 m/S 699 mmHg 92%
    11:00 +21°C° 0.2 mm 3 m/S 698 mmHg 92%
    12:00 +22°C° 0.2 mm 3 m/S 698 mmHg 91%
    13:00 +22°C° 0.2 mm 3 m/S 698 mmHg 92%
    14:00 +21°C° 0.2 mm 3 m/S 697 mmHg 92%
    15:00 +21°C° 0.2 mm 3 m/S 697 mmHg 93%
    16:00 +21°C° 0.1 mm 3 m/S 697 mmHg 93%
    17:00 +21°C° 0.1 mm 3 m/S 697 mmHg 94%
    18:00 +21°C° 0.1 mm 3 m/S 697 mmHg 94%
    19:00 +21°C° 0 mm 3 m/S 697 mmHg 94%
    20:00 +20°C° 0 mm 3 m/S 697 mmHg 94%
    21:00 +20°C° 0 mm 3 m/S 698 mmHg 93%
    22:00 +20°C° 0.1 mm 3 m/S 698 mmHg 93%
    23:00 +20°C° 0.1 mm 3 m/S 697 mmHg 93%
    Mehr zeigen